Regional Weather Roundup
Issued by NWS Upton, NY

Current Version | Previous Version | Graphics & Text | Print | Product List | Glossary Off
Versions: 1 2 3 4 5 6 7 8 9 10 11 12 13 14 15 16 17 18 19 20 21 22 23 24 25 26 27

000
ASUS41 KOKX 221209
RWROKX

REGIONAL WEATHER ROUNDUP
NATIONAL WEATHER SERVICE NEW YORK NY
800 AM EDT THU JUN 22 2017

NOTE: "FAIR" INDICATES FEW OR NO CLOUDS BELOW 12,000 FEET WITH NO
SIGNIFICANT WEATHER AND/OR OBSTRUCTIONS TO VISIBILITY.

NYZ071-072-176-178-NJZ106-104-221300-
NEW YORK CITY METRO AREA

CITY           SKY/WX    TMP DP  RH WIND       PRES   REMARKS
Central Park   MOSUNNY   72  57  59 VRB3      30.06R
Bronx Bot Gard   N/A     73  55  53 NE3       30.05R
LaGuardia APRT PTSUNNY   72  55  55 E6        30.02R
Kennedy INTL   PTSUNNY   73  60  63 E3        30.03R
Breezy Point     N/A     70 N/A N/A E3          N/A
Newark/Liberty MOSUNNY   73  58  59 N6        30.03R
Teterboro      SUNNY     71  58  63 CALM      30.02R
$$

NYZ177-179-078>081-221300-
LONG ISLAND NEW YORK

CITY           SKY/WX    TMP DP  RH WIND       PRES   REMARKS
Jones Beach      N/A     70 N/A N/A CALM        N/A
Matinecock PT  NOT AVBL
Farmingdale    NOT AVBL
MacArthur/ISP  MOSUNNY   72  57  59 N9        30.02R
Shirley        MOSUNNY   71  60  68 N3        30.03R
Mt Sinai Harb    N/A    N/A N/A N/A CALM        N/A
Westhampton    MOSUNNY   72  55  55 N6        30.04R
East Hampton   FAIR      70  54  56 N7        30.01S
Montauk          N/A     69  54  58 NW5       30.03R
$$

NYZ052-065-067-221300-
HUDSON VALLEY

CITY           SKY/WX    TMP DP  RH WIND       PRES   REMARKS
White Plains   SUNNY     70  55  60 NW5       30.03R
Larchmont Harb   N/A     66 N/A N/A MISG        N/A
Croton O-T Hud   N/A     64 N/A N/A CALM        N/A
Newburgh       SUNNY     64  59  82 W8        30.05R
Montgomery     SUNNY     65  58  78 CALM      30.04R
Poughkeepsie   SUNNY     63  57  81 CALM      30.03R
Albany         MOSUNNY   65  53  65 SW5       30.03R
$$

NJZ001-105-106-008-010-013-015-019>022-104-221300-
NEW JERSEY

CITY           SKY/WX    TMP DP  RH WIND       PRES   REMARKS
Newark/Liberty MOSUNNY   73  58  59 N6        30.03R
Teterboro      SUNNY     71  58  63 CALM      30.02R
Caldwell       SUNNY     71  59  65 CALM      30.04R
Somerville     MOSUNNY   68  62  81 CALM      30.02R
Linden         FAIR      73  59  61 CALM      30.03
Perth Amboy      N/A     70 N/A N/A CALM        N/A
Sussex         MOSUNNY   63  60  90 CALM      30.05R
Andover          N/A     64  60  87 CALM      30.05R
Trenton        MOSUNNY   70  64  81 CALM      30.03R
Millville      MOSUNNY   74  71  91 NW3       30.02R
Atlantic City  MOSUNNY   75  68  78 NW5       30.02R
Wrightstown    SUNNY     71  68  92 CALM      30.00S
Toms River     MOSUNNY   70  67  90 VRB3      30.03S
Belmar         MOSUNNY   70  64  81 CALM      30.04R
$$

PAZ047>061-062-071-221300-
EASTERN PENNSYLVANIA

CITY           SKY/WX    TMP DP  RH WIND       PRES   REMARKS
Philadelphia   PTSUNNY   74  65  73 NE3       30.02S
Allentown      MOSUNNY   66  61  84 CALM      30.04R
Scranton       MOSUNNY   64  56  75 CALM      30.05S
$$

CTZ002-004>006-009-010-012-RIZ004-006-007-MAZ004-011-015-221300-
SOUTHERN NEW ENGLAND
 IN CT

CITY           SKY/WX    TMP DP  RH WIND       PRES   REMARKS
Bradley INTL   FAIR      68  53  58 W5        30.02R
Hartford       SUNNY     66  59  78 SE6       30.02R
Danbury        SUNNY     67  58  72 CALM      30.05R
Wtrbury/Oxford MOSUNNY   64  54  68 N6        30.05R
Bridgeport     SUNNY     72  57  59 E5        30.02R
Meriden        SUNNY     68  57  68 CALM      30.02R
New Haven      MOSUNNY   70  55  60 MISG      30.02R
Chester        FAIR      70  52  52 VRB6      30.03R
Groton         SUNNY     71  54  54 N7        30.00R
Wilimantic     SUNNY     67  56  67 S3        30.02R

 IN RI

CITY           SKY/WX    TMP DP  RH WIND       PRES   REMARKS
Providence     MOSUNNY   69  56  62 W7        30.00R
Block Island   SUNNY     67  55  65 W8        30.02R
Westerly       SUNNY     71  54  54 VRB3      30.02R
 IN MA

CITY           SKY/WX    TMP DP  RH WIND       PRES   REMARKS
Boston         MOSUNNY   70  53  54 W8        29.98R
Worcester      SUNNY     64  49  57 W7        30.02R
Westfield      NOT AVBL
Provincetown   FAIR      64  56  75 W8        29.99R
Nantucket      SUNNY     70  57  63 NW10      29.99R
$$

ANZ330-335-338-340-345-350-353-355-221300-
COASTAL MARINE OBSERVATIONS


STATION/POSITION TIME  SKY/WX   TEMP    WIND        PRES    VSBY  WAVE
                                AIR SEA DIR/SP/G                  HT/PER
                 (UTC)          (F)     (DEG/KT/KT) (MB)    (MI)  (FT/S)
NY HARB ENTRANCE 1050            66 64   10/  4/  4 1016.2          2/ 6
20 S FIRE ISLAND 1150            69 67   60/  4/  6 1016.1          3/ 6
GREAT SOUTH BAY  1130            69 74   40/  2/  4   N/A
23 SSW MONTAUK P 1050            65 62              1016.2          3/ 6
15 E BARNEGAT LI 1130               65                N/A           2/ 6
HUDSON CANYON    1050            66 65  220/  4/  4 1016.0          3/ 6
KINGS POINT      1130            66 65     CALM     1016.6
EXECUTION ROCKS  1145            84      CALM  /  2   N/A
CENTRAL LI SOUND NOT AVBL
EASTERN LI SOUND NOT AVBL
ROBBINS REEF     1130                    CALM  /  2 1017.2
$$


>>>>>>>>>>>>>>>>>>>>>>>>>>>> KEY <<<<<<<<<<<<<<<<<<<<<<<<<<<
>                                                          <
>     SKY/WX - Sky Condition/Present Weather               <
>     TMP    - Temperature in Fahrenheit                   <
>     DP     - Dew Point in Fahrenheit                     <
>     RH     - Relative Humidity in Percent                <
>     WIND   - Direction (from) and Speed in MPH           <
>     PRES   - Mean Sea Level Pressure (inches of Hg)      <
>     WCI    - Wind Chill Index                            <
>     VSB    - VISIBILITY IN MILES                         <
>     HX     - HEAT INDEX                                  <
>     TC     - TEMPERATURE IN CELSIUS                      <
>     VRB    - VARIABLE WIND DIRECTION                     <
>                                                          <
>>>>>>>>>>>>>>>>>>>>>>>>>>>> KEY <<<<<<<<<<<<<<<<<<<<<<<<<<<




USA.gov is the U.S. government's official web portal to all federal, state and local government web resources and services.